User: anonymous   Login
Location: Erlenbrunn
(49.1717°N, 7.6142°E)
Time: 05:38:30
(UTC+00:00)
Language:

Cosmos 405 Rocket - Orbit

View from above orbital plane
View from above orbital plane
View from above satellite
View from above satellite

Ground track
Ground track

The orbit data is extracted from the following two-line orbital elements,

1 05118U 71028B   21055.95107480  .00000444  00000-0  21746-4 0  9996
2 05118  81.2546  46.2943 0047902  78.2098 282.4498 15.14863504708040
Epoch (UTC): 24 February 2021 22:49:32
Eccentricity: 0.0047902
inclination: 81.2546°
perigee height: 488 km
apogee height: 554 km
right ascension of ascending node: 46.2943°
argument of perigee: 78.2098°
revolutions per day: 15.14863504
mean anomaly at epoch: 282.4498°
orbit number at epoch: 70804

The dashed part of the orbit path shows where the satellite is in the earth's shadow,  

DLR